Weather in Jekabpils

Latvia     56°29′52″N   25°52′00″E
temp.,
°C
wind,
m/s
gust,
m/s
humid.,
%
clouds,
%
prec.,
mm/h
press.,
hPa
HPBL,
m
13 april, tue
tue1300:00+10e2383100 0.1 101856
03:00+9s138237 0.1 101885
06:00+8wnw359296 0.0 1019224
09:00+5nw3787100 0.0 1021365
12:00+6nnw3582100 0.0 1021513
15:00+5nw3689100 1.1 1022517
18:00+3nnw4996100 0.4 1022485
21:00+2nnw41097100 1.3 1022470
14 april, wed
wed1400:00+1nnw3997100 0.8 1021384
03:00+1nnw41097100 1.8 1021422
06:00+1n31095100 0.4 1021492
09:00+3nne3881100 0.4 1021640
12:00+5nne3678100 0.0 1021743
15:00+5ne3682100 0.1 1021863
18:00+5ne3890100 0.2 1021804
21:00+4ene31082100 0.5 1021680
15 april, thu
thu1500:00+4ne41188100 0.0 1021709
03:00+4ne51280100 0.0 1021664
06:00+3ne41278100 0.0 1021618
09:00+4ne51376100 0.0 1022639
12:00+6ne51269100 0.0 1022818
15:00+5ne51376100 0.6 1022830
18:00+5ne51481100 1.1 1022855
21:00
16 april, fri
fri1600:00+6ne51481100 0.1 1021817
03:00+5ne51380100 0.1 1021720
06:00+5ne51384100 0.1 1021607
09:00+4ne51390100 0.4 1022514
12:00+6ne51386100 0.2 1022534
15:00+11ene51071100 0.2 1022887
18:00+11ne51067100 0.0 1022985
21:00+8ne5136599 0.0 1025627
17 april, sat
sat1700:00+7ene51365100 0.0 1025507
03:00+5ene4127284 0.0 1025405
06:00+4ene4127880 0.0 1026394
09:00+7ene512705 0.0 1027510
12:00+12ene585640 0.0 1027936
15:00+14e58497 0.0 10281392
18:00+13e47495 0.0 10281312
21:00+8ene311685 0.0 1029291